Tracking 32139 objects as of 19-Nov-2025
HD Live streaming from Space Station
objects crossing your sky now

STARLINK-5109

Track STARLINK-5109 now!
10-day predictions
STARLINK-5109 is classified as:


NORAD ID: 54002
Int'l Code: 2022-125AQ
Perigee: 545.7 km
Apogee: 548.1 km
Inclination: 53.2 °
Period: 95.4 minutes
Semi major axis: 6917 km
RCS: Unknown
Launch date: October 5, 2022
Source: United States (US)
Launch site: AIR FORCE WESTERN TEST RANGE (AFWTR)
Your satellite tracking list
Your tracking list is empty




NASA's NSSDC Master Catalog

Two Line Element Set (TLE):
1 54002U 22125AQ  25322.38488718  .00001820  00000-0  13243-3 0  9991
2 54002  53.2182 343.5240 0001773  92.3130 267.8065 15.08832170172808
Source of the keplerian elements: AFSPC